Time,TemperatureF,DewpointF,PressureIn,WindDirection,WindDirectionDegrees,WindSpeedMPH,WindSpeedGustMPH,Humidity,HourlyPrecipIn,Conditions,Clouds,dailyrainin,SoftwareType,DateUTC
2013-02-05 00:05:00,35.1,25.0,30.03,SW,223,0.0,0.0,67,0.00,,,0.00,weatherlink.com 1.10,2013-02-05 05:05:00,
2013-02-05 00:20:00,35.7,26.0,30.02,SW,223,0.0,0.0,67,0.00,,,0.00,weatherlink.com 1.10,2013-02-05 05:20:00,
2013-02-05 00:35:00,35.5,27.0,30.01,SW,222,0.0,0.0,71,0.00,,,0.00,weatherlink.com 1.10,2013-02-05 05:35:00,
2013-02-05 00:50:00,35.0,26.0,30.00,SW,223,0.0,0.0,71,0.00,,,0.00,weatherlink.com 1.10,2013-02-05 05:50:00,
2013-02-05 01:05:00,34.8,27.0,30.00,SW,223,0.0,0.0,72,0.00,,,0.00,weatherlink.com 1.10,2013-02-05 06:05:00,
2013-02-05 01:20:00,34.7,26.0,30.00,SW,222,0.0,0.0,70,0.00,,,0.00,weatherlink.com 1.10,2013-02-05 06:20:00,
2013-02-05 01:35:00,34.6,26.0,29.99,SW,222,0.0,1.0,71,0.00,,,0.00,weatherlink.com 1.10,2013-02-05 06:35:00,
2013-02-05 01:50:00,33.3,26.0,29.99,SW,222,0.0,0.0,74,0.00,,,0.00,weatherlink.com 1.10,2013-02-05 06:50:00,
2013-02-05 02:05:00,33.0,25.0,29.99,SW,222,0.0,1.0,72,0.00,,,0.00,weatherlink.com 1.10,2013-02-05 07:05:00,
2013-02-05 02:20:00,32.9,25.0,29.99,SW,223,0.0,1.0,73,0.00,,,0.00,weatherlink.com 1.10,2013-02-05 07:20:00,
2013-02-05 02:35:00,33.9,26.0,29.98,ESE,116,0.0,1.0,73,0.00,,,0.00,weatherlink.com 1.10,2013-02-05 07:35:00,
2013-02-05 02:50:00,34.1,27.0,29.98,SSE,160,0.0,1.0,74,0.00,,,0.00,weatherlink.com 1.10,2013-02-05 07:50:00,
2013-02-05 03:05:00,33.5,26.0,29.98,SW,215,0.0,0.0,74,0.00,,,0.00,weatherlink.com 1.10,2013-02-05 08:05:00,
2013-02-05 03:20:00,32.7,25.0,29.97,SW,215,0.0,1.0,74,0.00,,,0.00,weatherlink.com 1.10,2013-02-05 08:20:00,
2013-02-05 03:35:00,32.1,25.0,29.97,WNW,301,0.0,2.0,76,0.00,,,0.00,weatherlink.com 1.10,2013-02-05 08:35:00,
2013-02-05 03:50:00,31.7,25.0,29.97,WNW,301,0.0,1.0,77,0.00,,,0.00,weatherlink.com 1.10,2013-02-05 08:50:00,
2013-02-05 04:05:00,30.8,25.0,29.97,WNW,301,0.0,0.0,79,0.00,,,0.00,weatherlink.com 1.10,2013-02-05 09:05:00,
2013-02-05 04:20:00,30.4,25.0,29.97,WNW,300,0.0,0.0,80,0.00,,,0.00,weatherlink.com 1.10,2013-02-05 09:20:00,
2013-02-05 04:35:00,30.0,25.0,29.97,WNW,301,0.0,0.0,81,0.00,,,0.00,weatherlink.com 1.10,2013-02-05 09:35:00,
2013-02-05 04:50:00,29.8,25.0,29.97,WNW,300,0.0,1.0,82,0.00,,,0.00,weatherlink.com 1.10,2013-02-05 09:50:00,
2013-02-05 05:05:00,29.0,25.0,29.98,WNW,301,0.0,1.0,83,0.00,,,0.00,weatherlink.com 1.10,2013-02-05 10:05:00,
2013-02-05 05:20:00,29.5,25.0,29.97,SSW,208,0.0,1.0,83,0.00,,,0.00,weatherlink.com 1.10,2013-02-05 10:20:00,
2013-02-05 05:35:00,29.7,25.0,29.98,SSW,208,0.0,0.0,83,0.00,,,0.00,weatherlink.com 1.10,2013-02-05 10:35:00,
2013-02-05 05:50:00,30.6,26.0,29.98,SSE,147,0.0,1.0,83,0.00,,,0.00,weatherlink.com 1.10,2013-02-05 10:50:00,
2013-02-05 06:05:00,30.6,26.0,29.98,SE,146,0.0,0.0,83,0.00,,,0.00,weatherlink.com 1.10,2013-02-05 11:05:00,
2013-02-05 06:20:00,31.4,26.0,29.97,SE,146,0.0,1.0,81,0.00,,,0.00,weatherlink.com 1.10,2013-02-05 11:20:00,
2013-02-05 06:35:00,31.6,26.0,29.98,SE,146,0.0,0.0,81,0.00,,,0.00,weatherlink.com 1.10,2013-02-05 11:35:00,
2013-02-05 06:50:00,31.2,26.0,29.99,SE,146,0.0,1.0,82,0.00,,,0.00,weatherlink.com 1.10,2013-02-05 11:50:00,
2013-02-05 07:05:00,30.3,26.0,29.99,SE,146,0.0,0.0,83,0.00,,,0.00,weatherlink.com 1.10,2013-02-05 12:05:00,
2013-02-05 07:21:00,30.1,25.0,29.98,NNE,27,0.0,1.0,82,0.00,,,0.00,weatherlink.com 1.10,2013-02-05 12:21:00,
2013-02-05 07:36:00,30.0,25.0,29.99,West,277,0.0,1.0,83,0.00,,,0.00,weatherlink.com 1.10,2013-02-05 12:36:00,
2013-02-05 07:51:00,31.1,26.0,29.99,West,279,0.0,1.0,81,0.00,,,0.00,weatherlink.com 1.10,2013-02-05 12:51:00,
2013-02-05 08:06:00,30.9,26.0,30.00,SSW,192,1.0,1.0,81,0.00,,,0.00,weatherlink.com 1.10,2013-02-05 13:06:00,
2013-02-05 08:21:00,32.8,27.0,30.00,WNW,300,1.0,2.0,78,0.00,,,0.00,weatherlink.com 1.10,2013-02-05 13:21:00,
2013-02-05 08:36:00,33.9,28.0,30.01,SSW,194,0.0,2.0,78,0.00,,,0.00,weatherlink.com 1.10,2013-02-05 13:36:00,
2013-02-05 08:51:00,34.5,27.0,30.00,SSW,194,0.0,0.0,75,0.00,,,0.00,weatherlink.com 1.10,2013-02-05 13:51:00,
2013-02-05 09:06:00,35.8,29.0,30.00,SSW,194,0.0,1.0,75,0.00,,,0.00,weatherlink.com 1.10,2013-02-05 14:06:00,
2013-02-05 09:21:00,37.2,29.0,30.00,SW,233,0.0,1.0,71,0.00,,,0.00,weatherlink.com 1.10,2013-02-05 14:21:00,
2013-02-05 09:36:00,37.9,29.0,30.01,SSW,210,1.0,3.0,69,0.00,,,0.00,weatherlink.com 1.10,2013-02-05 14:36:00,
2013-02-05 09:51:00,38.8,29.0,30.00,SSW,204,0.0,1.0,69,0.00,,,0.00,weatherlink.com 1.10,2013-02-05 14:51:00,
2013-02-05 10:06:00,39.7,29.0,30.01,West,259,0.0,2.0,67,0.00,,,0.00,weatherlink.com 1.10,2013-02-05 15:06:00,
2013-02-05 10:21:00,40.8,30.0,30.01,West,274,1.0,2.0,66,0.00,,,0.00,weatherlink.com 1.10,2013-02-05 15:21:00,
2013-02-05 10:51:00,42.7,32.0,30.01,West,269,0.0,3.0,65,0.00,,,0.00,weatherlink.com 1.10,2013-02-05 15:51:00,
2013-02-05 11:06:00,45.4,32.0,30.01,SE,143,1.0,3.0,60,0.00,,,0.00,weatherlink.com 1.10,2013-02-05 16:06:00,
2013-02-05 11:21:00,47.9,32.0,30.00,SSW,197,0.0,3.0,55,0.00,,,0.00,weatherlink.com 1.10,2013-02-05 16:21:00,
2013-02-05 11:36:00,50.4,33.0,30.00,SE,134,1.0,4.0,52,0.00,,,0.00,weatherlink.com 1.10,2013-02-05 16:36:00,
2013-02-05 11:51:00,52.4,32.0,30.00,WSW,253,1.0,3.0,47,0.00,,,0.00,weatherlink.com 1.10,2013-02-05 16:51:00,
2013-02-05 12:06:00,53.8,33.0,29.99,SSW,211,2.0,4.0,46,0.00,,,0.00,weatherlink.com 1.10,2013-02-05 17:06:00,
2013-02-05 12:21:00,53.6,37.0,29.99,NNW,345,3.0,7.0,53,0.00,,,0.00,weatherlink.com 1.10,2013-02-05 17:21:00,
2013-02-05 12:36:00,53.7,37.0,29.98,NW,320,3.0,8.0,53,0.00,,,0.00,weatherlink.com 1.10,2013-02-05 17:36:00,
2013-02-05 12:51:00,54.0,37.0,29.97,NNW,337,4.0,10.0,54,0.00,,,0.00,weatherlink.com 1.10,2013-02-05 17:51:00,
2013-02-05 13:06:00,53.8,38.0,29.97,NW,321,4.0,12.0,55,0.00,,,0.00,weatherlink.com 1.10,2013-02-05 18:06:00,
2013-02-05 13:22:00,53.4,37.0,29.96,NNW,342,2.0,13.0,55,0.00,,,0.00,weatherlink.com 1.10,2013-02-05 18:22:00,
2013-02-05 13:37:00,53.8,38.0,29.96,NW,307,4.0,13.0,55,0.00,,,0.00,weatherlink.com 1.10,2013-02-05 18:37:00,
2013-02-05 13:52:00,53.6,37.0,29.96,NW,323,8.0,15.0,53,0.00,,,0.00,weatherlink.com 1.10,2013-02-05 18:52:00,
2013-02-05 14:07:00,53.5,37.0,29.95,NNE,16,2.0,15.0,54,0.00,,,0.00,weatherlink.com 1.10,2013-02-05 19:07:00,
2013-02-05 14:22:00,53.0,37.0,29.96,WNW,291,3.0,16.0,56,0.00,,,0.00,weatherlink.com 1.10,2013-02-05 19:22:00,
2013-02-05 14:37:00,53.4,37.0,29.95,WNW,298,5.0,10.0,55,0.00,,,0.00,weatherlink.com 1.10,2013-02-05 19:37:00,
2013-02-05 14:52:00,53.5,37.0,29.96,NW,325,3.0,9.0,53,0.00,,,0.00,weatherlink.com 1.10,2013-02-05 19:52:00,
2013-02-05 15:07:00,53.4,35.0,29.95,NW,322,2.0,16.0,51,0.00,,,0.00,weatherlink.com 1.10,2013-02-05 20:07:00,
2013-02-05 15:22:00,54.2,36.0,29.95,WNW,291,3.0,9.0,50,0.00,,,0.00,weatherlink.com 1.10,2013-02-05 20:22:00,
2013-02-05 15:37:00,53.6,35.0,29.96,WNW,298,5.0,9.0,50,0.00,,,0.00,weatherlink.com 1.10,2013-02-05 20:37:00,
2013-02-05 15:52:00,53.7,35.0,29.96,NW,306,1.0,12.0,49,0.00,,,0.00,weatherlink.com 1.10,2013-02-05 20:52:00,
2013-02-05 16:07:00,53.7,33.0,29.96,NW,307,1.0,9.0,46,0.00,,,0.00,weatherlink.com 1.10,2013-02-05 21:07:00,
2013-02-05 16:22:00,53.2,32.0,29.96,WNW,302,1.0,6.0,45,0.00,,,0.00,weatherlink.com 1.10,2013-02-05 21:22:00,
2013-02-05 16:37:00,52.4,32.0,29.96,NNW,332,3.0,9.0,46,0.00,,,0.00,weatherlink.com 1.10,2013-02-05 21:37:00,
2013-02-05 16:52:00,52.0,33.0,29.97,WNW,295,1.0,8.0,48,0.00,,,0.00,weatherlink.com 1.10,2013-02-05 21:52:00,
2013-02-05 17:07:00,51.1,33.0,29.97,ESE,106,1.0,6.0,50,0.00,,,0.00,weatherlink.com 1.10,2013-02-05 22:07:00,
2013-02-05 17:22:00,50.4,33.0,29.97,SW,235,0.0,11.0,52,0.00,,,0.00,weatherlink.com 1.10,2013-02-05 22:22:00,
2013-02-05 17:37:00,49.7,33.0,29.97,WNW,300,1.0,7.0,53,0.00,,,0.00,weatherlink.com 1.10,2013-02-05 22:37:00,
2013-02-05 17:52:00,48.9,33.0,29.97,WNW,288,0.0,5.0,54,0.00,,,0.00,weatherlink.com 1.10,2013-02-05 22:52:00,
2013-02-05 18:07:00,47.9,33.0,29.98,SSE,150,0.0,3.0,57,0.00,,,0.00,weatherlink.com 1.10,2013-02-05 23:07:00,
2013-02-05 18:22:00,46.3,33.0,29.98,West,264,0.0,1.0,60,0.00,,,0.00,weatherlink.com 1.10,2013-02-05 23:22:00,
2013-02-05 18:37:00,44.3,32.0,29.98,West,264,0.0,1.0,63,0.00,,,0.00,weatherlink.com 1.10,2013-02-05 23:37:00,
2013-02-05 18:52:00,43.2,32.0,29.98,West,264,0.0,1.0,65,0.00,,,0.00,weatherlink.com 1.10,2013-02-05 23:52:00,
2013-02-05 19:07:00,42.6,32.0,29.99,West,264,0.0,0.0,66,0.00,,,0.00,weatherlink.com 1.10,2013-02-06 00:07:00,
2013-02-05 19:22:00,42.0,32.0,29.99,West,264,0.0,0.0,68,0.00,,,0.00,weatherlink.com 1.10,2013-02-06 00:22:00,
2013-02-05 19:37:00,40.6,32.0,29.99,West,264,0.0,0.0,71,0.00,,,0.00,weatherlink.com 1.10,2013-02-06 00:37:00,
2013-02-05 19:52:00,40.6,32.0,30.00,West,264,0.0,0.0,71,0.00,,,0.00,weatherlink.com 1.10,2013-02-06 00:52:00,
2013-02-05 20:07:00,39.0,31.0,30.00,West,264,0.0,0.0,74,0.00,,,0.00,weatherlink.com 1.10,2013-02-06 01:07:00,
2013-02-05 20:22:00,38.9,32.0,30.00,West,264,0.0,0.0,77,0.00,,,0.00,weatherlink.com 1.10,2013-02-06 01:22:00,
2013-02-05 20:37:00,40.8,33.0,30.00,West,264,0.0,0.0,73,0.00,,,0.00,weatherlink.com 1.10,2013-02-06 01:37:00,
2013-02-05 20:52:00,41.2,33.0,30.00,West,264,0.0,0.0,72,0.00,,,0.00,weatherlink.com 1.10,2013-02-06 01:52:00,
2013-02-05 21:07:00,38.1,31.0,30.01,West,264,0.0,0.0,76,0.00,,,0.00,weatherlink.com 1.10,2013-02-06 02:07:00,
2013-02-05 21:22:00,36.6,31.0,30.01,West,264,0.0,0.0,80,0.00,,,0.00,weatherlink.com 1.10,2013-02-06 02:22:00,
2013-02-05 21:37:00,35.9,31.0,30.01,West,264,0.0,0.0,81,0.00,,,0.00,weatherlink.com 1.10,2013-02-06 02:37:00,
2013-02-05 21:52:00,34.6,30.0,30.01,West,264,0.0,0.0,84,0.00,,,0.00,weatherlink.com 1.10,2013-02-06 02:52:00,
2013-02-05 22:07:00,34.1,30.0,30.02,West,264,0.0,0.0,86,0.00,,,0.00,weatherlink.com 1.10,2013-02-06 03:07:00,
2013-02-05 22:22:00,33.9,31.0,30.01,West,264,0.0,0.0,87,0.00,,,0.00,weatherlink.com 1.10,2013-02-06 03:22:00,
2013-02-05 22:37:00,34.0,30.0,30.02,West,264,0.0,0.0,86,0.00,,,0.00,weatherlink.com 1.10,2013-02-06 03:37:00,
2013-02-05 22:52:00,33.9,30.0,30.02,West,264,0.0,0.0,86,0.00,,,0.00,weatherlink.com 1.10,2013-02-06 03:52:00,
2013-02-05 23:07:00,33.5,30.0,30.02,West,264,0.0,0.0,87,0.00,,,0.00,weatherlink.com 1.10,2013-02-06 04:07:00,
2013-02-05 23:22:00,33.5,30.0,30.02,West,264,0.0,0.0,87,0.00,,,0.00,weatherlink.com 1.10,2013-02-06 04:22:00,
2013-02-05 23:37:00,33.5,30.0,30.02,West,264,0.0,1.0,86,0.00,,,0.00,weatherlink.com 1.10,2013-02-06 04:37:00,
2013-02-05 23:52:00,33.6,30.0,30.02,West,264,0.0,0.0,86,0.00,,,0.00,weatherlink.com 1.10,2013-02-06 04:52:00,